Regional Weather Roundup
Issued by NWS Sterling, VA

Home | Current Version | Previous Version | Graphics & Text | Print | Product List | Glossary On
Versions: 1 2 3 4 5 6 7 8 9 10 11 12 13 14 15 16 17 18 19 20 21 22 23 24 25 26 27 28 29 30 31 32 33 34 35 36 37 38 39 40 41 42 43 44 45 46 47 48 49 50
000
ASUS41 KLWX 161110
RWRLWX

REGIONAL WEATHER ROUNDUP
NATIONAL WEATHER SERVICE BALTIMORE MD/WASHINGTON DC
700 AM EDT TUE SEP 16 2014

Note: "FAIR" indicates few or no clouds below 12,000 feet
with no significant weather and/or obstructions to visibility.
 TC=TEMPERATURE CELSIUS

 * =Non NWS site. Station does not report precipitation (e.g. rain,
    snow, etc.), thunder, or fog.

DCZ001-MDZ009-015-VAZ040>042-051-053>054-161200-
WASHINGTON METRO

CITY           SKY/WX    TMP DP  RH WIND       PRES   REMARKS
WASHINGTON NAT MOCLDY    67  60  78 W3        30.02S
DULLES         MOCLDY    57  57 100 CALM      30.03R
ANDREWS AFB    CLOUDY    64  62  94 NW3       30.01S
QUANTICO       MOCLDY    63  61  93 NW5       30.03R
COLLEGE PARK*  PTCLDY    61  61 100 CALM      30.01R
LEESBURG*      MOCLDY    59  59 100 CALM      30.03R
MANASSAS*      CLOUDY    59  57  94 CALM      30.02S
GAITHERSBURG*  PTCLDY    57  55  94 CALM      30.06R

$$

MDZ006>007-011-014-161200-
BALTIMORE METRO

CITY           SKY/WX    TMP DP  RH WIND       PRES   REMARKS
BWI AIRPORT    MOCLDY    59  58  96 W5        30.00S
MD SCIENCE CTR   N/A     63  59  87 MISG      30.01R
MARTIN STATE   MOCLDY    63  63 100 W3        30.01S
ANNAPOLIS      CLEAR     64  61  90 W5        30.00S
FORT MEADE*    PTCLDY    54  54 100 CALM      30.03S

$$

MDZ012-015-019>023-161200-
MARYLAND EASTERN SHORE

CITY           SKY/WX    TMP DP  RH WIND       PRES   REMARKS
OCEAN CITY     CLOUDY    69  64  84 SW6       30.01S
SALISBURY        N/A    N/A N/A N/A MISG        N/A
BAY BRIDGE AP*   N/A     64  63  94 W7        30.00S
CAMBRIDGE*     PTCLDY    70  64  83 W5        30.00S
EASTON*        PTCLDY    64  64 100 CALM      30.04S

$$

MDZ017>025-161200-
SOUTHERN MARYLAND

CITY           SKY/WX    TMP DP  RH WIND       PRES   REMARKS
PATUXENT RIVER PTCLDY    66  62  87 W6        30.01R
ST INIGOES     MOCLDY    68  62  81 W6        30.01S
LEONARDTOWN*   CLEAR     64  61  88 SW3       30.03S

$$

MDZ003>005-161200-
NORTH CENTRAL MARYLAND

CITY           SKY/WX    TMP DP  RH WIND       PRES   REMARKS
FREDERICK*     CLEAR     57  55  94 CALM      30.04S
HAGERSTOWN APT CLOUDY    60  53  77 SW3       30.02R
WESTMINSTER*   PTCLDY    57  55  94 CALM      30.01S FOG

$$

MDZ501>502-161200-
WESTERN MARYLAND

CITY           SKY/WX    TMP DP  RH WIND       PRES   REMARKS
OAKLAND*       FOG       50 N/A N/A W10G17    30.08S VSB 1/2
CUMBERLAND*    CLOUDY    57  54  88 NW3       30.09R

$$

VAZ025>031-161200-
SHENANDOAH VALLEY

CITY           SKY/WX    TMP DP  RH WIND       PRES   REMARKS
WINCHESTER*    CLOUDY    63  55  77 CALM      30.04R
STAUNTON*      PTCLDY    58  55  92 CALM      30.08R FOG

$$

WVZ021-048>050-054>055-161200-
EASTERN WEST VIRGINIA PANHANDLE

CITY           SKY/WX    TMP DP  RH WIND       PRES   REMARKS
MARTINSBURG    CLOUDY    59  55  87 CALM      30.04R
PETERSBURG*    LGT RAIN  60  58  94 CALM      30.06R

$$

VAZ036>039-050-161200-
CENTRAL FOOTHILLS

CITY           SKY/WX    TMP DP  RH WIND       PRES   REMARKS
CHARLOTTESVILL FOG       61  60  97 CALM      30.03R VSB 1/4
ORANGE*        MOCLDY    59  57  94 CALM      30.04R FOG

$$

VAZ055>057-161200-
NORTH AND CENTRAL PIEDMONT

CITY           SKY/WX    TMP DP  RH WIND       PRES   REMARKS
FREDERICKSBRG* PTCLDY    62  62 100 CALM      30.02R
STAFFORD*      FOG       58  58 100 CALM      30.06S VSB 1

$$

NCZ024-NYZ072-PAZ021-071-VAZ022-071-161200-
OTHER REGIONAL OBSERVATIONS

CITY           SKY/WX    TMP DP  RH WIND       PRES   REMARKS
NEW YORK CITY  MOCLDY    62  53  72 CALM      30.02S
PHILADELPHIA   LGT RAIN  62  59  90 W3        30.00R
PITTSBURGH     CLOUDY    54  53  97 NW7       30.09R
ROANOKE        PTCLDY    65  57  75 W10       30.09R
RICHMOND       PTCLDY    67  64  90 SW5       30.02S FOG
RALEIGH        MOCLDY    68  65  90 CALM      30.06R FOG

$$

ANZ530>537-161200-
MARINE OBSERVATIONS

STATION/POSITION TIME  TEMP    WIND        PRES
                       AIR SEA DIR/SP/G
                 (UTC) (F)     (DEG/KT/KT) (MB)
THOMAS PT LIGHT  1100   65 74  270/  9/ 11 1017.0R
BALT KEY BRIDGE  1100   64     250/  8/  9 1015.8
COVE POINT       1100   67     270/  8/ 11 1016.0
LEWISETTA        1100   67 73  250/  6/  8 1016.1
SOLOMONS ISLAND  1100      76                N/A
PINEY POINT      1100          290/  9/ 11   N/A

$$



USA.gov is the U.S. government's official web portal to all federal, state and local government web resources and services.